| time (UTC) | temp F | wind direction | speed MPH | gust MPH | rain 1hr in | rain 24hr in | rain mn in | humidity % | barometer mb |
| 20260503025113 | 55 | 229 | 0.0 | 2.0 | 0.00 | 1.02 | 1.02 | 99 | 1012.5 |
| 20260503024609 | 55 | 226 | 0.0 | 1.0 | 0.00 | 1.02 | 1.02 | 99 | 1012.7 |
| 20260503024106 | 55 | 257 | 0.0 | 2.0 | 0.00 | 1.02 | 1.02 | 99 | 1012.5 |
| 20260503023603 | 55 | 240 | 0.0 | 0.0 | 0.00 | 1.02 | 1.02 | 99 | 1012.4 |
| 20260503023100 | 55 | 250 | 0.0 | 1.0 | 0.00 | 1.02 | 1.02 | 99 | 1012.4 |
| 20260503022556 | 55 | 119 | 0.0 | 1.0 | 0.00 | 1.02 | 1.02 | 99 | 1012.4 |
| 20260503022051 | 55 | 40 | 1.0 | 1.0 | 0.00 | 1.02 | 1.02 | 99 | 1012.2 |
| 20260503021548 | 55 | 41 | 0.0 | 0.0 | 0.00 | 1.02 | 1.02 | 99 | 1012.1 |
| 20260503021044 | 55 | 41 | 0.0 | 0.0 | 0.00 | 1.02 | 1.02 | 99 | 1012.0 |
| 20260503020542 | 55 | 41 | 0.0 | 0.0 | 0.00 | 1.02 | 1.02 | 99 | 1011.8 |
| 20260503020039 | 55 | 41 | 0.0 | 1.0 | 0.00 | 1.02 | 1.02 | 99 | 1011.8 |
| 20260503015535 | 55 | 41 | 0.0 | 1.0 | 0.00 | 1.02 | 1.02 | 99 | 1011.8 |
| 20260503015033 | 55 | 108 | 0.0 | 1.0 | 0.00 | 1.02 | 1.02 | 99 | 1011.5 |
| 20260503014528 | 55 | 95 | 1.0 | 2.0 | 0.00 | 1.02 | 1.02 | 99 | 1011.6 |
| 20260503014027 | 55 | 262 | 0.0 | 1.0 | 0.00 | 1.02 | 1.02 | 99 | 1011.4 |
| 20260503013523 | 55 | 297 | 0.0 | 1.0 | 0.00 | 1.02 | 1.02 | 99 | 1011.5 |
| 20260503013021 | 55 | 230 | 0.0 | 0.0 | 0.00 | 1.02 | 1.02 | 99 | 1011.5 |
| 20260503012519 | 55 | 71 | 1.0 | 2.0 | 0.00 | 1.02 | 1.02 | 99 | 1011.7 |
| 20260503012015 | 55 | 240 | 0.0 | 1.0 | 0.00 | 1.02 | 1.02 | 99 | 1011.6 |
| 20260503011511 | 55 | 351 | 2.0 | 5.0 | 0.00 | 1.02 | 1.02 | 99 | 1011.3 |
| 20260503011009 | 55 | 304 | 0.0 | 1.0 | 0.00 | 1.02 | 1.02 | 99 | 1011.6 |
| 20260503010505 | 55 | 271 | 0.0 | 2.0 | 0.00 | 1.02 | 1.02 | 99 | 1011.6 |
| 20260503010003 | 55 | 209 | 0.0 | 1.0 | 0.00 | 1.02 | 1.02 | 99 | 1011.4 |
| 20260503005500 | 55 | 322 | 1.0 | 3.0 | 0.00 | 1.02 | 1.02 | 99 | 1011.4 |
| 20260503004957 | 55 | 242 | 1.0 | 1.0 | 0.00 | 1.02 | 1.02 | 99 | 1011.4 |
| 20260503004453 | 55 | 256 | 0.0 | 2.0 | 0.00 | 1.02 | 1.02 | 99 | 1011.2 |
| 20260503003951 | 55 | 304 | 1.0 | 2.0 | 0.00 | 1.02 | 1.02 | 99 | 1011.2 |
| 20260503003447 | 55 | 284 | 2.0 | 2.0 | 0.00 | 1.02 | 1.02 | 99 | 1010.9 |
| 20260503002944 | 55 | 21 | 2.0 | 5.0 | 0.00 | 1.02 | 1.02 | 99 | 1010.8 |
| 20260503002442 | 56 | 315 | 1.0 | 3.0 | 0.00 | 1.02 | 1.02 | 99 | 1010.8 |
| 20260503001937 | 56 | 41 | 1.0 | 3.0 | 0.00 | 1.02 | 1.02 | 99 | 1010.5 |
| 20260503001434 | 56 | 25 | 0.0 | 2.0 | 0.00 | 1.02 | 1.02 | 99 | 1010.7 |
| 20260503000932 | 56 | 45 | 1.0 | 1.0 | 0.00 | 1.02 | 1.02 | 99 | 1010.9 |
| 20260503000430 | 56 | 21 | 1.0 | 3.0 | 0.00 | 1.02 | 1.02 | 99 | 1010.9 |
| 20260502235926 | 56 | 247 | 0.0 | 1.0 | 0.00 | 1.02 | 1.02 | 99 | 1010.7 |
| 20260502235423 | 56 | 238 | 0.0 | 3.0 | 0.00 | 1.02 | 1.02 | 99 | 1010.5 |
| 20260502234920 | 56 | 323 | 1.0 | 2.0 | 0.00 | 1.02 | 1.02 | 99 | 1010.3 |
| 20260502234417 | 56 | 15 | 0.0 | 2.0 | 0.00 | 1.02 | 1.02 | 99 | 1010.3 |
| 20260502233914 | 56 | 42 | 3.0 | 3.0 | 0.00 | 1.02 | 1.02 | 99 | 1010.4 |
| 20260502233409 | 56 | 286 | 1.0 | 1.0 | 0.00 | 1.02 | 1.02 | 99 | 1010.5 |
| 20260502232907 | 56 | 259 | 1.0 | 2.0 | 0.00 | 1.02 | 1.02 | 99 | 1010.3 |
| 20260502232403 | 57 | 42 | 2.0 | 3.0 | 0.00 | 1.02 | 1.02 | 99 | 1010.0 |
| 20260502231900 | 57 | 14 | 1.0 | 2.0 | 0.00 | 1.02 | 1.02 | 99 | 1009.8 |
| 20260502231358 | 57 | 321 | 0.0 | 1.0 | 0.00 | 1.02 | 1.02 | 99 | 1009.5 |
| 20260502230855 | 57 | 301 | 1.0 | 2.0 | 0.00 | 1.02 | 1.02 | 99 | 1009.6 |
| 20260502230353 | 57 | 41 | 1.0 | 3.0 | 0.00 | 1.02 | 1.02 | 99 | 1009.8 |
| 20260502225850 | 57 | 54 | 0.0 | 5.0 | 0.00 | 1.02 | 1.02 | 99 | 1009.8 |
| 20260502225346 | 57 | 269 | 0.0 | 5.0 | 0.00 | 1.02 | 1.02 | 99 | 1009.8 |
| 20260502224844 | 57 | 260 | 0.0 | 1.0 | 0.00 | 1.02 | 1.02 | 99 | 1009.8 |
| 20260502224339 | 57 | 269 | 0.0 | 2.0 | 0.02 | 1.02 | 1.02 | 99 | 1009.8 |
| 20260502223837 | 57 | 76 | 3.0 | 5.0 | 0.02 | 1.02 | 1.02 | 99 | 1009.9 |
| 20260502223335 | 57 | 38 | 1.0 | 2.0 | 0.00 | 1.02 | 1.02 | 99 | 1010.1 |
| 20260502222832 | 57 | 284 | 1.0 | 2.0 | 0.00 | 1.02 | 1.02 | 99 | 1009.8 |
| 20260502222330 | 57 | 315 | 0.0 | 2.0 | 0.00 | 1.02 | 1.02 | 99 | 1009.8 |
| 20260502221825 | 57 | 331 | 1.0 | 2.0 | 0.00 | 1.02 | 1.02 | 99 | 1009.9 |
| 20260502221322 | 57 | 16 | 0.0 | 2.0 | 0.02 | 1.02 | 1.02 | 99 | 1009.7 |
| 20260502220819 | 57 | 275 | 1.0 | 2.0 | 0.02 | 1.02 | 1.02 | 99 | 1009.7 |
| 20260502220315 | 57 | 44 | 1.0 | 5.0 | 0.00 | 1.01 | 1.01 | 99 | 1009.5 |
| 20260502215811 | 57 | 23 | 1.0 | 5.0 | 0.00 | 1.01 | 1.01 | 99 | 1009.5 |
| 20260502215309 | 57 | 298 | 0.0 | 3.0 | 0.00 | 1.01 | 1.01 | 99 | 1009.5 |
| 20260502214806 | 57 | 348 | 1.0 | 2.0 | 0.00 | 1.01 | 1.01 | 99 | 1009.2 |
| 20260502214302 | 57 | 359 | 0.0 | 6.0 | 0.00 | 1.01 | 1.01 | 99 | 1009.3 |
| 20260502213800 | 57 | 336 | 2.0 | 3.0 | 0.00 | 1.01 | 1.01 | 99 | 1009.2 |
| 20260502213257 | 57 | 358 | 1.0 | 2.0 | 0.00 | 1.01 | 1.01 | 99 | 1009.1 |
| 20260502212756 | 57 | 344 | 1.0 | 6.0 | 0.00 | 1.01 | 1.01 | 99 | 1008.9 |
| 20260502212253 | 57 | 322 | 2.0 | 5.0 | 0.00 | 1.01 | 1.01 | 99 | 1008.9 |
| 20260502211749 | 57 | 0 | 2.0 | 6.0 | 0.00 | 1.01 | 1.01 | 99 | 1008.9 |
| 20260502211246 | 57 | 81 | 1.0 | 5.0 | 0.00 | 1.01 | 1.01 | 99 | 1008.7 |
| 20260502210743 | 57 | 358 | 1.0 | 3.0 | 0.00 | 1.01 | 1.01 | 99 | 1008.8 |
| 20260502210241 | 57 | 21 | 1.0 | 3.0 | 0.00 | 1.01 | 1.01 | 99 | 1008.8 |
| 20260502205738 | 57 | 351 | 1.0 | 9.0 | 0.00 | 1.01 | 1.01 | 99 | 1008.6 |
| 20260502205234 | 57 | 59 | 3.0 | 6.0 | 0.00 | 1.01 | 1.01 | 99 | 1008.6 |
| 20260502204731 | 57 | 357 | 3.0 | 5.0 | 0.00 | 1.01 | 1.01 | 99 | 1008.6 |
| 20260502204229 | 57 | 1 | 1.0 | 3.0 | 0.00 | 1.01 | 1.01 | 99 | 1008.7 |
| 20260502203726 | 57 | 351 | 1.0 | 5.0 | 0.00 | 1.01 | 1.01 | 99 | 1008.3 |
| 20260502203224 | 58 | 74 | 4.0 | 13.0 | 0.00 | 1.01 | 1.01 | 99 | 1008.3 |
| 20260502202718 | 58 | 345 | 3.0 | 5.0 | 0.00 | 1.01 | 1.01 | 99 | 1008.3 |
| 20260502202216 | 58 | 354 | 3.0 | 5.0 | 0.02 | 1.01 | 1.01 | 99 | 1008.5 |
| 20260502201714 | 58 | 358 | 5.0 | 14.0 | 0.02 | 1.01 | 1.01 | 99 | 1008.1 |
| 20260502201210 | 58 | 80 | 2.0 | 2.0 | 0.00 | 1.01 | 1.01 | 99 | 1008.1 |
| 20260502200706 | 58 | 57 | 0.0 | 2.0 | 0.00 | 1.01 | 1.01 | 99 | 1008.4 |
| 20260502200202 | 59 | 335 | 1.0 | 6.0 | 0.00 | 1.01 | 1.01 | 99 | 1008.4 |
| 20260502195701 | 59 | 307 | 2.0 | 3.0 | 0.02 | 1.01 | 1.01 | 99 | 1008.5 |
| 20260502195157 | 59 | 287 | 1.0 | 2.0 | 0.05 | 1.01 | 1.01 | 99 | 1008.2 |
| 20260502194653 | 59 | 75 | 1.0 | 6.0 | 0.05 | 1.00 | 1.00 | 99 | 1008.2 |
| 20260502194144 | 59 | 223 | 0.0 | 3.0 | 0.02 | 1.00 | 1.00 | 99 | 1008.4 |
| 20260502193641 | 59 | 41 | 2.0 | 3.0 | 0.02 | 1.00 | 1.00 | 99 | 1008.4 |
| 20260502193138 | 59 | 87 | 1.0 | 2.0 | 0.05 | 1.00 | 1.00 | 99 | 1008.6 |
| 20260502192633 | 59 | 2 | 1.0 | 3.0 | 0.05 | 0.99 | 0.99 | 99 | 1008.6 |
| 20260502192131 | 60 | 281 | 1.0 | 3.0 | 0.07 | 0.99 | 0.99 | 99 | 1008.6 |
| 20260502191628 | 60 | 14 | 4.0 | 6.0 | 0.05 | 0.98 | 0.98 | 99 | 1008.2 |
| 20260502191125 | 60 | 334 | 2.0 | 3.0 | 0.02 | 0.97 | 0.97 | 99 | 1008.5 |
| 20260502190622 | 60 | 68 | 3.0 | 8.0 | 0.02 | 0.97 | 0.97 | 99 | 1008.4 |
| 20260502190120 | 60 | 86 | 3.0 | 9.0 | 0.02 | 0.97 | 0.97 | 99 | 1008.2 |
| 20260502185615 | 60 | 35 | 3.0 | 5.0 | 0.02 | 0.97 | 0.97 | 99 | 1008.3 |
| 20260502185112 | 60 | 65 | 2.0 | 2.0 | 0.02 | 0.96 | 0.96 | 99 | 1008.1 |
| 20260502184608 | 60 | 22 | 2.0 | 3.0 | 0.07 | 0.96 | 0.96 | 99 | 1008.0 |
| 20260502184103 | 60 | 251 | 0.0 | 5.0 | 0.09 | 0.96 | 0.96 | 99 | 1007.8 |
| 20260502183600 | 60 | 184 | 0.0 | 2.0 | 0.09 | 0.95 | 0.95 | 99 | 1007.8 |
| 20260502183056 | 60 | 49 | 1.0 | 5.0 | 0.05 | 0.94 | 0.94 | 99 | 1008.0 |
| 20260502182551 | 60 | 18 | 2.0 | 3.0 | 0.02 | 0.93 | 0.93 | 99 | 1008.3 |
| 20260502182047 | 60 | 353 | 2.0 | 3.0 | 0.02 | 0.93 | 0.93 | 99 | 1008.2 |
| 20260502181545 | 60 | 30 | 4.0 | 6.0 | 0.00 | 0.93 | 0.93 | 99 | 1008.4 |
| 20260502181044 | 60 | 339 | 2.0 | 3.0 | 0.00 | 0.93 | 0.93 | 99 | 1008.4 |
| 20260502180541 | 60 | 120 | 1.0 | 5.0 | 0.00 | 0.93 | 0.93 | 99 | 1008.4 |
| 20260502170454 | 59 | 264 | 1.0 | 2.0 | 0.02 | 0.81 | 0.81 | 99 | 1008.8 |
| 20260502163937 | 59 | 13 | 2.0 | 3.0 | 0.02 | 0.80 | 0.80 | 99 | 1008.3 |
| 20260502163433 | 59 | 77 | 4.0 | 6.0 | 0.05 | 0.80 | 0.80 | 99 | 1008.4 |
| 20260502162931 | 59 | 32 | 9.0 | 10.0 | 0.05 | 0.80 | 0.80 | 99 | 1008.6 |
| 20260502162428 | 59 | 107 | 6.0 | 11.0 | 0.09 | 0.80 | 0.80 | 99 | 1008.4 |
| 20260502161926 | 59 | 10 | 3.0 | 7.0 | 0.12 | 0.79 | 0.79 | 99 | 1008.5 |
| 20260502161421 | 59 | 102 | 4.0 | 6.0 | 0.14 | 0.78 | 0.78 | 99 | 1008.6 |
| 20260502160919 | 59 | 76 | 1.0 | 5.0 | 0.19 | 0.77 | 0.77 | 99 | 1009.2 |
| 20260502160416 | 59 | 22 | 5.0 | 7.0 | 0.09 | 0.75 | 0.75 | 99 | 1009.3 |
| 20260502151855 | 59 | 358 | 2.0 | 5.0 | 0.09 | 0.70 | 0.70 | 99 | 1009.9 |
| 20260502151351 | 59 | 336 | 5.0 | 6.0 | 0.09 | 0.69 | 0.69 | 99 | 1009.9 |
| 20260502150849 | 59 | 35 | 2.0 | 5.0 | 0.09 | 0.69 | 0.69 | 99 | 1009.9 |
| 20260502150346 | 59 | 13 | 7.0 | 8.0 | 0.07 | 0.68 | 0.68 | 99 | 1009.8 |
| 20260502130734 | 61 | 265 | 1.0 | 1.0 | 0.12 | 0.39 | 0.39 | 99 | 1009.3 |
| 20260502130231 | 61 | 31 | 2.0 | 3.0 | 0.24 | 0.39 | 0.39 | 99 | 1009.1 |
| 20260502123717 | 61 | 11 | 0.0 | 1.0 | 0.17 | 0.32 | 0.32 | 99 | 1009.0 |
| 20260502123214 | 61 | 326 | 0.0 | 3.0 | 0.05 | 0.30 | 0.30 | 99 | 1008.8 |
| 20260502122710 | 61 | 98 | 3.0 | 3.0 | 0.02 | 0.29 | 0.29 | 99 | 1008.8 |
| 20260502122207 | 61 | 64 | 1.0 | 6.0 | 0.02 | 0.29 | 0.29 | 99 | 1008.5 |
| 20260502121705 | 61 | 358 | 1.0 | 3.0 | 0.05 | 0.29 | 0.29 | 99 | 1008.6 |
| 20260502121203 | 61 | 51 | 2.0 | 5.0 | 0.05 | 0.28 | 0.28 | 99 | 1008.7 |
| 20260502120659 | 61 | 5 | 3.0 | 5.0 | 0.02 | 0.28 | 0.28 | 99 | 1008.2 |
| 20260502120156 | 61 | 195 | 1.0 | 3.0 | 0.00 | 0.28 | 0.28 | 99 | 1008.8 |
| 20260502115654 | 61 | 339 | 0.0 | 5.0 | 0.00 | 0.28 | 0.28 | 99 | 1008.0 |
| 20260502115149 | 62 | 17 | 3.0 | 5.0 | 0.00 | 0.28 | 0.28 | 99 | 1007.9 |
| 20260502114646 | 61 | 59 | 0.0 | 2.0 | 0.00 | 0.28 | 0.28 | 99 | 1008.1 |
| 20260502114143 | 62 | 11 | 3.0 | 6.0 | 0.00 | 0.28 | 0.28 | 99 | 1008.1 |
| 20260502113640 | 62 | 64 | 2.0 | 7.0 | 0.00 | 0.28 | 0.28 | 99 | 1007.9 |
| 20260502113133 | 62 | 28 | 6.0 | 9.0 | 0.00 | 0.28 | 0.28 | 99 | 1008.1 |
| 20260502112630 | 62 | 35 | 0.0 | 3.0 | 0.00 | 0.28 | 0.28 | 99 | 1008.2 |
| 20260502112127 | 62 | 65 | 2.0 | 6.0 | 0.00 | 0.28 | 0.28 | 99 | 1008.2 |
| 20260502111625 | 62 | 349 | 0.0 | 3.0 | 0.00 | 0.28 | 0.28 | 99 | 1008.3 |
| 20260502111122 | 62 | 46 | 5.0 | 6.0 | 0.00 | 0.28 | 0.28 | 99 | 1008.3 |
| 20260502110620 | 62 | 9 | 0.0 | 5.0 | 0.00 | 0.28 | 0.28 | 99 | 1008.2 |
| 20260502110117 | 62 | 57 | 3.0 | 5.0 | 0.07 | 0.28 | 0.28 | 99 | 1008.4 |
| 20260502105615 | 62 | 88 | 1.0 | 2.0 | 0.12 | 0.28 | 0.28 | 99 | 1008.5 |
| 20260502105111 | 62 | 28 | 1.0 | 3.0 | 0.05 | 0.26 | 0.26 | 99 | 1008.4 |
| 20260502104609 | 62 | 344 | 0.0 | 0.0 | 0.05 | 0.26 | 0.26 | 99 | 1009.4 |
| 20260502104106 | 63 | 348 | 0.0 | 0.0 | 0.07 | 0.25 | 0.25 | 99 | 1009.2 |
| 20260502103603 | 63 | 350 | 0.0 | 0.0 | 0.07 | 0.25 | 0.25 | 99 | 1009.0 |
| 20260502103102 | 63 | 30 | 1.0 | 1.0 | 0.05 | 0.24 | 0.24 | 99 | 1009.0 |
| 20260502102558 | 63 | 233 | 0.0 | 1.0 | 0.05 | 0.24 | 0.24 | 99 | 1009.3 |
| 20260502102055 | 63 | 7 | 0.0 | 1.0 | 0.09 | 0.23 | 0.23 | 99 | 1008.6 |
| 20260502101553 | 63 | 61 | 0.0 | 3.0 | 0.12 | 0.23 | 0.23 | 99 | 1008.7 |
| 20260502101051 | 63 | 9 | 0.0 | 1.0 | 0.07 | 0.21 | 0.21 | 99 | 1008.8 |
| 20260502100549 | 63 | 177 | 0.0 | 0.0 | 0.07 | 0.21 | 0.21 | 99 | 1009.4 |
| 20260502091523 | 63 | 220 | 0.0 | 0.0 | 0.05 | 0.15 | 0.15 | 99 | 1009.3 |
| 20260502091021 | 63 | 225 | 0.0 | 0.0 | 0.02 | 0.14 | 0.14 | 99 | 1009.1 |
| 20260502090518 | 63 | 218 | 0.0 | 0.0 | 0.05 | 0.14 | 0.14 | 99 | 1009.4 |
| 20260502071412 | 63 | 199 | 0.0 | 0.0 | 0.00 | 0.05 | 0.05 | 99 | 1008.8 |
| 20260502070910 | 63 | 199 | 0.0 | 0.0 | 0.02 | 0.05 | 0.05 | 99 | 1009.1 |
| 20260502070408 | 63 | 196 | 0.0 | 0.0 | 0.02 | 0.05 | 0.05 | 99 | 1009.1 |
| 20260502065906 | 63 | 133 | 0.0 | 0.0 | 0.00 | 0.05 | 0.05 | 99 | 1009.2 |
| 20260502065404 | 63 | 210 | 0.0 | 0.0 | 0.00 | 0.05 | 0.05 | 99 | 1009.4 |
| 20260502064903 | 63 | 231 | 0.0 | 0.0 | 0.02 | 0.05 | 0.05 | 99 | 1009.7 |
| 20260502064400 | 63 | 230 | 0.0 | 0.0 | 0.05 | 0.05 | 0.05 | 99 | 1009.4 |
| 20260502063856 | 63 | 202 | 0.0 | 0.0 | 0.05 | 0.04 | 0.04 | 99 | 1009.6 |
| 20260502063355 | 63 | 217 | 0.0 | 0.0 | 0.07 | 0.04 | 0.04 | 99 | 1009.6 |
| 20260502062852 | 63 | 220 | 0.0 | 0.0 | 0.07 | 0.03 | 0.03 | 99 | 1009.4 |
| 20260502062349 | 63 | 219 | 0.0 | 0.0 | 0.02 | 0.02 | 0.02 | 99 | 1009.8 |
| 20260502061848 | 63 | 222 | 0.0 | 0.0 | 0.02 | 0.02 | 0.02 | 99 | 1009.8 |
| 20260502061345 | 63 | 223 | 0.0 | 0.0 | 0.07 | 0.02 | 0.02 | 99 | 1009.4 |
| 20260502060841 | 63 | 228 | 0.0 | 0.0 | 0.07 | 0.02 | 0.02 | 99 | 1009.7 |
| 20260502060336 | 63 | 221 | 0.0 | 0.0 | 0.02 | 0.01 | 0.01 | 99 | 1009.3 |
| 20260502055834 | 63 | 222 | 0.0 | 0.0 | 0.00 | 0.00 | 0.00 | 99 | 1009.4 |
| 20260502055332 | 63 | 215 | 0.0 | 0.0 | 0.00 | 0.00 | 0.00 | 99 | 1009.3 |
| 20260502054831 | 63 | 189 | 0.0 | 0.0 | 0.02 | 0.00 | 0.00 | 99 | 1008.8 |
| 20260502054328 | 63 | 5 | 0.0 | 0.0 | 0.02 | 0.00 | 0.00 | 99 | 1009.0 |
| 20260502053826 | 63 | 25 | 0.0 | 0.0 | 0.00 | 0.00 | 0.00 | 99 | 1009.1 |
| 20260502053323 | 63 | 286 | 0.0 | 0.0 | 0.00 | 0.00 | 0.00 | 99 | 1009.0 |
| 20260502052820 | 63 | 21 | 1.0 | 3.0 | 0.00 | 0.00 | 0.00 | 99 | 1009.2 |
| 20260502052318 | 63 | 47 | 0.0 | 1.0 | 0.00 | 0.00 | 0.00 | 99 | 1009.2 |
| 20260502051816 | 63 | 24 | 0.0 | 0.0 | 0.00 | 0.00 | 0.00 | 99 | 1009.4 |
| 20260502051315 | 63 | 30 | 0.0 | 0.0 | 0.00 | 0.00 | 0.00 | 99 | 1009.4 |
| 20260502050810 | 63 | 26 | 0.0 | 0.0 | 0.00 | 0.00 | 0.00 | 99 | 1009.7 |
| 20260502050306 | 63 | 26 | 0.0 | 0.0 | 0.00 | 0.00 | 0.00 | 99 | 1009.5 |
| 20260502045804 | 63 | 26 | 0.0 | 0.0 | 0.00 | 0.00 | 0.00 | 99 | 1009.7 |
| 20260502045300 | 63 | 27 | 0.0 | 0.0 | 0.00 | 0.00 | 0.00 | 99 | 1009.8 |
| 20260502044758 | 63 | 27 | 0.0 | 0.0 | 0.00 | 0.00 | 0.00 | 99 | 1010.1 |
| 20260502044254 | 63 | 27 | 0.0 | 0.0 | 0.00 | 0.00 | 0.00 | 99 | 1010.1 |
| 20260502043751 | 63 | 27 | 0.0 | 0.0 | 0.00 | 0.00 | 0.00 | 99 | 1010.0 |
| 20260502043249 | 63 | 26 | 0.0 | 0.0 | 0.00 | 0.00 | 0.00 | 99 | 1010.1 |
| 20260502042748 | 63 | 27 | 0.0 | 0.0 | 0.00 | 0.00 | 0.00 | 98 | 1010.2 |
| 20260502042245 | 63 | 27 | 0.0 | 0.0 | 0.00 | 0.00 | 0.00 | 98 | 1010.0 |
| 20260502041742 | 63 | 27 | 0.0 | 0.0 | 0.00 | 0.00 | 0.00 | 98 | 1010.1 |
| 20260502041240 | 63 | 26 | 0.0 | 0.0 | 0.00 | 0.00 | 0.00 | 98 | 1010.3 |
| 20260502040737 | 63 | 26 | 0.0 | 0.0 | 0.00 | 0.00 | 0.00 | 98 | 1010.2 |
| 20260502040233 | 63 | 26 | 0.0 | 0.0 | 0.00 | 0.00 | 0.00 | 98 | 1010.1 |
| 20260502035729 | 63 | 26 | 0.0 | 0.0 | 0.00 | 0.16 | 0.16 | 98 | 1009.8 |
| 20260502035227 | 63 | 26 | 0.0 | 0.0 | 0.00 | 0.16 | 0.16 | 98 | 1010.0 |
| 20260502034724 | 63 | 27 | 0.0 | 0.0 | 0.00 | 0.16 | 0.16 | 98 | 1010.1 |
| 20260502034222 | 63 | 26 | 0.0 | 0.0 | 0.00 | 0.16 | 0.16 | 98 | 1010.1 |
| 20260502033720 | 63 | 26 | 0.0 | 0.0 | 0.00 | 0.16 | 0.16 | 98 | 1010.2 |
| 20260502033218 | 63 | 30 | 0.0 | 0.0 | 0.00 | 0.16 | 0.16 | 98 | 1010.1 |
| 20260502032714 | 63 | 30 | 0.0 | 0.0 | 0.00 | 0.16 | 0.16 | 98 | 1010.2 |
| 20260502032210 | 63 | 35 | 0.0 | 0.0 | 0.00 | 0.16 | 0.16 | 98 | 1010.4 |
| 20260502031708 | 63 | 27 | 0.0 | 0.0 | 0.00 | 0.16 | 0.16 | 98 | 1010.6 |
| 20260502031206 | 63 | 25 | 0.0 | 0.0 | 0.00 | 0.16 | 0.16 | 98 | 1010.6 |
| 20260502030704 | 63 | 22 | 0.0 | 0.0 | 0.00 | 0.16 | 0.16 | 98 | 1010.7 |
| 20260502030202 | 63 | 22 | 0.0 | 0.0 | 0.00 | 0.16 | 0.16 | 98 | 1011.0 |
| 20260502025659 | 63 | 24 | 0.0 | 0.0 | 0.00 | 0.16 | 0.16 | 98 | 1010.7 |